Tracking 33068 objects as of 24-Jan-2026
HD Live streaming from Space Station
objects crossing your sky now

KUIPER-00024

Track KUIPER-00024 now!
10-day predictions
KUIPER-00024 is classified as:


NORAD ID: 63738
Int'l Code: 2025-088Q
Perigee: 635.9 km
Apogee: 637.5 km
Inclination: 51.9 °
Period: 97.3 minutes
Semi major axis: 7007 km
RCS: Unknown
Launch date: April 28, 2025
Source: United States (US)
Launch site: AIR FORCE EASTERN TEST RANGE (AFETR)
Your satellite tracking list
Your tracking list is empty




NASA's NSSDC Master Catalog

Two Line Element Set (TLE):
1 63738U 25088Q   26023.75576702  .00007987  00000-0  10753-2 0  9991
2 63738  51.9030 291.8006 0001128 101.2313 258.8776 14.79935259 41402
Source of the keplerian elements: AFSPC